Date String (YYYY-MM-DD hh:mm:ss) UTC,Instrument flags,absolute air pressure of the measurement (hPa),sample flow rate (lpm),inlet stack bypass flow (lpm),air temperature of the measurement (°C),ambient temperature measured by the external sensor (°C),aerosol sample conditioner tube jacket temperature (°C),OPC LED temperature (°C),internal box temperature (°C),relative humidity of the measurement (%),span deviation,mass concentration of particles derived from Lorenz-Mie calculation of OPC scattering (μg/m³),mass concentration of particles derived from Lorenz-Mie calculation of OPC scattering (μg/m³),mass concentration of particles derived from Lorenz-Mie calculation of OPC scattering (μg/m³)
DateTimeUTC,F1_M11,P_M11,Q1_M11,Q2_M11,T1_M11,T2_M11,T3_M11,T4_M11,T5_M11,U1_M11,ZSPAN_M11,X0_M11,X2_M11,X1_M11
2023-10-09 07:00:00,SystemResetWarning,0831.3,5.01,000.00,029.0,027.5,000.0,037.4,030.5,12.4,0000.0,0008.19,0003.21,0002.22
2023-10-09 07:01:00,SystemResetWarning,0831.3,5.01,000.00,029.0,027.5,000.0,037.4,030.6,12.4,0000.0,0009.42,0003.23,0002.22
2023-10-09 07:02:00,SystemResetWarning,0831.3,5.01,000.00,029.0,027.5,000.0,037.4,030.6,12.4,0000.0,0009.38,0003.25,0002.21
2023-10-09 07:03:00,SystemResetWarning,0831.3,5.00,000.00,029.0,027.5,000.0,037.4,030.5,12.4,0000.0,0009.34,0003.24,0002.21
2023-10-09 07:04:00,SystemResetWarning,0831.3,4.99,000.00,029.0,027.5,000.0,037.4,030.5,12.4,0000.0,0009.08,0003.19,0002.21
2023-10-09 07:05:00,SystemResetWarning,0831.3,4.99,000.00,029.0,027.5,000.0,037.4,030.6,12.4,0000.0,0009.22,0003.19,0002.20
2023-10-09 07:06:00,SystemResetWarning,0831.3,5.00,000.00,029.0,027.5,000.0,037.4,030.6,12.4,0000.0,0009.36,0003.19,0002.20
2023-10-09 07:07:00,SystemResetWarning,0831.3,5.01,000.00,029.0,027.5,000.0,037.4,030.6,12.4,0000.0,0009.52,0003.17,0002.20
2023-10-09 07:08:00,SystemResetWarning,0831.3,5.00,000.00,029.0,027.5,000.0,037.4,030.6,12.4,0000.0,0010.19,0003.17,0002.18
2023-10-09 07:09:00,SystemResetWarning,0831.3,5.00,000.00,029.0,027.5,000.0,037.4,030.6,12.4,0000.0,0010.91,0003.15,0002.16
2023-10-09 07:10:00,SystemResetWarning,0831.3,5.00,000.00,029.0,027.5,000.0,037.4,030.6,12.4,0000.0,0011.86,0003.16,0002.15
2023-10-09 07:11:00,SystemResetWarning,0831.3,4.99,000.00,029.0,027.5,000.0,037.4,030.6,12.4,0000.0,0011.29,0003.15,0002.14
2023-10-09 07:12:00,SystemResetWarning,0831.3,5.00,000.00,029.0,027.5,000.0,037.4,030.6,12.4,0000.0,0010.02,0003.16,0002.14
2023-10-09 07:13:00,SystemResetWarning,0831.3,4.99,000.00,029.0,027.5,000.0,037.4,030.6,12.4,0000.0,0010.32,0003.16,0002.15
2023-10-09 07:14:00,SystemResetWarning,0831.3,5.00,000.00,029.0,027.5,000.0,037.4,030.6,12.4,0000.0,0010.44,0003.12,0002.15
2023-10-09 07:15:00,SystemResetWarning,0831.3,5.00,000.00,029.0,027.5,000.0,037.4,030.6,12.4,0000.0,0010.51,0003.16,0002.15
2023-10-09 07:16:00,SystemResetWarning,0831.2,5.01,000.00,029.0,027.5,000.0,037.4,030.6,12.4,0000.0,0010.40,0003.16,0002.17
2023-10-09 07:17:00,SystemResetWarning,0831.2,5.00,000.00,029.0,027.5,000.0,037.4,030.6,12.4,0000.0,0010.43,0003.16,0002.17
2023-10-09 07:18:00,SystemResetWarning,0831.3,5.00,000.00,029.0,027.5,000.0,037.4,030.6,12.4,0000.0,0010.34,0003.19,0002.18
2023-10-09 07:19:00,SystemResetWarning,0831.3,5.00,000.00,029.0,027.5,000.0,037.4,030.5,12.4,0000.0,0009.67,0003.22,0002.19
2023-10-09 07:20:00,SystemResetWarning,0831.2,4.99,000.00,029.0,027.5,000.0,037.4,030.6,12.4,0000.0,0009.16,0003.22,0002.21
2023-10-09 07:21:00,SystemResetWarning,0831.2,4.99,000.00,029.0,027.5,000.0,037.4,030.6,12.4,0000.0,0008.36,0003.24,0002.22
2023-10-09 07:22:00,SystemResetWarning,0831.2,5.00,000.00,029.0,027.5,000.0,037.4,030.6,12.4,0000.0,0008.36,0003.26,0002.23
2023-10-09 07:23:00,SystemResetWarning,0831.2,5.01,000.00,029.0,027.5,000.0,037.4,030.6,12.4,0000.0,0009.23,0003.26,0002.23
2023-10-09 07:24:00,SystemResetWarning,0831.2,5.01,000.00,029.0,027.5,000.0,037.4,030.6,12.4,0000.0,0008.82,0003.27,0002.22
2023-10-09 07:25:00,SystemResetWarning,0831.3,5.00,000.00,029.0,027.5,000.0,037.5,030.6,12.4,0000.0,0008.79,0003.30,0002.22
2023-10-09 07:26:00,SystemResetWarning,0831.2,5.00,000.00,029.0,027.5,000.0,037.5,030.6,12.4,0000.0,0009.00,0003.32,0002.22
2023-10-09 07:27:00,SystemResetWarning,0831.2,5.00,000.00,029.0,027.5,000.0,037.5,030.6,12.4,0000.0,0009.77,0003.33,0002.21
2023-10-09 07:28:00,SystemResetWarning,0831.2,5.00,000.00,029.0,027.5,000.0,037.5,030.6,12.4,0000.0,0009.66,0003.36,0002.21
2023-10-09 07:29:00,SystemResetWarning,0831.2,5.00,000.00,029.0,027.5,000.0,037.5,030.6,12.4,0000.0,0009.62,0003.34,0002.20
2023-10-09 07:30:00,SystemResetWarning,0831.3,5.00,000.00,029.0,027.5,000.0,037.5,030.6,12.3,0000.0,0009.43,0003.30,0002.19
2023-10-09 07:31:00,SystemResetWarning,0831.2,5.00,000.00,029.0,027.5,000.0,037.5,030.6,12.3,0000.0,0009.54,0003.29,0002.18
2023-10-09 07:32:00,SystemResetWarning,0831.2,5.01,000.00,029.0,027.5,000.0,037.5,030.6,12.3,0000.0,0010.41,0003.28,0002.20
2023-10-09 07:33:00,SystemResetWarning,0831.2,5.00,000.00,029.0,027.5,000.0,037.5,030.6,12.3,0000.0,0010.63,0003.28,0002.20
2023-10-09 07:34:00,SystemResetWarning,0831.2,5.01,000.00,029.0,027.5,000.0,037.4,030.6,12.3,0000.0,0009.59,0003.24,0002.19
2023-10-09 07:35:00,SystemResetWarning,0831.2,5.00,000.00,029.0,027.4,000.0,037.5,030.6,12.3,0000.0,0009.25,0003.22,0002.19
2023-10-09 07:36:00,SystemResetWarning,0831.2,4.99,000.00,029.0,027.5,000.0,037.5,030.6,12.3,0000.0,0009.20,0003.26,0002.20
2023-10-09 07:37:00,SystemResetWarning,0831.2,4.99,000.00,029.0,027.5,000.0,037.5,030.6,12.3,0000.0,0009.07,0003.23,0002.19
2023-10-09 07:38:00,SystemResetWarning,0831.2,5.00,000.00,029.0,027.4,000.0,037.5,030.6,12.3,0000.0,0008.55,0003.22,0002.19
2023-10-09 07:39:00,SystemResetWarning,0831.2,5.00,000.00,029.0,027.4,000.0,037.4,030.6,12.3,0000.0,0008.51,0003.21,0002.19
2023-10-09 07:40:00,SystemResetWarning,0831.2,5.01,000.00,029.0,027.5,000.0,037.4,030.6,12.3,0000.0,0009.08,0003.21,0002.20
2023-10-09 07:41:00,SystemResetWarning,0831.2,5.00,000.00,029.0,027.5,000.0,037.5,030.6,12.3,0000.0,0010.01,0003.24,0002.21
2023-10-09 07:42:00,SystemResetWarning,0831.2,5.00,000.00,029.0,027.5,000.0,037.5,030.6,12.3,0000.0,0010.18,0003.29,0002.24
2023-10-09 07:43:00,SystemResetWarning,0831.2,5.00,000.00,029.0,027.5,000.0,037.5,030.6,12.3,0000.0,0009.28,0003.32,0002.23
2023-10-09 07:44:00,SystemResetWarning,0831.2,5.00,000.00,029.0,027.5,000.0,037.5,030.6,12.3,0000.0,0008.67,0003.29,0002.22
2023-10-09 07:45:00,SystemResetWarning,0831.2,5.00,000.00,029.0,027.5,000.0,037.5,030.6,12.3,0000.0,0008.68,0003.29,0002.21
2023-10-09 07:46:00,SystemResetWarning,0831.2,5.00,000.00,029.0,027.5,000.0,037.5,030.6,12.3,0000.0,0008.73,0003.28,0002.22
2023-10-09 07:47:00,SystemResetWarning,0831.2,4.99,000.00,029.0,027.5,000.0,037.4,030.6,12.3,0000.0,0008.69,0003.27,0002.21
2023-10-09 07:48:00,SystemResetWarning,0831.2,5.00,000.00,029.0,027.5,000.0,037.4,030.6,12.3,0000.0,0008.75,0003.25,0002.21
2023-10-09 07:49:00,SystemResetWarning,0831.1,5.00,000.00,029.0,027.5,000.0,037.4,030.5,12.3,0000.0,0008.59,0003.24,0002.22
2023-10-09 07:50:00,SystemResetWarning,0831.2,5.00,000.00,029.0,027.5,000.0,037.4,030.5,12.3,0000.0,0009.63,0003.23,0002.21
2023-10-09 07:51:00,SystemResetWarning,0831.1,5.00,000.00,029.0,027.5,000.0,037.4,030.6,12.3,0000.0,0009.31,0003.23,0002.20
2023-10-09 07:52:00,SystemResetWarning,0831.1,5.00,000.00,029.0,027.5,000.0,037.4,030.6,12.3,0000.0,0008.67,0003.23,0002.19
2023-10-09 07:53:00,SystemResetWarning,0831.1,5.00,000.00,029.0,027.5,000.0,037.4,030.5,12.3,0000.0,0008.78,0003.20,0002.17
2023-10-09 07:54:00,SystemResetWarning,0831.2,5.00,000.00,029.0,027.5,000.0,037.4,030.5,12.3,0000.0,0009.45,0003.16,0002.16
2023-10-09 07:55:00,SystemResetWarning,0831.2,5.01,000.00,029.0,027.5,000.0,037.5,030.6,12.3,0000.0,0009.68,0003.21,0002.17
2023-10-09 07:56:00,SystemResetWarning,0831.2,5.00,000.00,029.0,027.5,000.0,037.5,030.6,12.3,0000.0,0009.91,0003.24,0002.18
2023-10-09 07:57:00,SystemResetWarning,0831.2,5.00,000.00,029.0,027.5,000.0,037.5,030.6,12.3,0000.0,0011.63,0003.28,0002.19
2023-10-09 07:58:00,SystemResetWarning,0831.2,5.00,000.00,029.0,027.4,000.0,037.5,030.6,12.3,0000.0,0011.80,0003.27,0002.19
2023-10-09 07:59:00,SystemResetWarning,0831.2,5.00,000.00,029.0,027.4,000.0,037.5,030.6,12.3,0000.0,0011.73,0003.28,0002.18
